Regional Weather Roundup
Issued by NWS Kansas City/Pleasant Hill, MO

Home | Current Version | Previous Version | Text Only | Print | Product List | Glossary On
Versions: 1 2 3 4 5 6 7 8 9 10 11 12 13 14 15 16 17 18 19 20 21 22 23 24 25 26 27 28 29 30 31 32 33 34 35 36 37 38 39 40 41 42 43 44 45 46 47 48 49 50
124
ASUS43 KEAX 260210
RWREAX

WEATHER ROUNDUP FOR EASTERN KANSAS AND NORTHWEST MISSOURI
NATIONAL WEATHER SERVICE KANSAS CITY/PLEASANT HILL MO
900 PM CDT THU MAY 25 2017

KSZ040-057-103>105-MOZ028-029-037-043-260300-
...KANSAS CITY METROPOLITAN AREA...

CITY           SKY/WX    TMP DP  RH WIND       PRES   REMARKS
K.C. INTL      PTCLDY    68  55  63 SE8       29.62R
K.C. DOWNTOWN  CLEAR     72  55  55 SE7       29.61R
LEES SUMMIT    CLEAR     70  57  63 SE7       29.62R
OLATHE - IXD   CLEAR     70  56  61 SE8       29.62R
OLATHE - OJC   CLEAR     68  57  68 SE6       29.62R
LAWRENCE       CLEAR     68  58  70 E8        29.60R

$$

MOZ001>008-011>017-020>025-030>033-038>040-044>046-053-054-260300-
...NORTHERN AND CENTRAL MISSOURI...

CITY           SKY/WX    TMP DP  RH WIND       PRES   REMARKS
ST. JOSEPH     CLEAR     69  57  65 SE7       29.62R
MOSBY          CLEAR     70  54  56 SE3       29.62R
WARRENSBURG    CLEAR     66  54  63 E7        29.63R
WHITEMAN AFB   CLEAR     67  59  74 SE6       29.62S
CLINTON        CLEAR     68  55  64 SE7       29.64R
SEDALIA        PTCLDY    69  57  65 SE9       29.66R
WARSAW         NOT AVBL
CHILLICOTHE      N/A     68  55  63 SE7       29.66R
KIRKSVILLE     CLOUDY    61  54  77 CALM      29.72R

$$

MOZ041-047>049-056>058-063>065-088>090-097-260300-
...EASTERN AND SOUTHERN MISSOURI...

CITY           SKY/WX    TMP DP  RH WIND       PRES   REMARKS
ST. LOUIS INTL PTCLDY    73  49  42 S5        29.73R
SPIRIT OF STL  CLEAR     63  55  75 SE3       29.71R
COLUMBIA       PTCLDY    68  54  60 SE8       29.69R
JEFFERSON CITY PTCLDY    71  54  54 SE8       29.68R
ROLLA          PTCLDY    65  54  67 SE9       29.71R
OSAGE BEACH    PTCLDY    68  56  65 SE5       29.69R
SPRINGFIELD    CLEAR     71  56  58 S17       29.65R
BRANSON        CLEAR     68  55  64 SE9       29.71R
JOPLIN         CLEAR     74  58  57 SE8       29.62R
WEST PLAINS    CLEAR     67  55  65 SE6       29.75R

$$

IAZ060-094-KSZ022-034>040-054-083-096-NEZ052-066-093-260300-
...KANSAS...SOUTHEAST NEBRASKA AND IOWA...

CITY           SKY/WX    TMP DP  RH WIND       PRES   REMARKS
TOPEKA         CLEAR     68  58  70 E6        29.58R
MANHATTAN      CLEAR     69  59  70 NE5       29.56R
EMPORIA        CLEAR     70  58  65 SE9       29.56R
CHANUTE        CLEAR     73  58  59 SE9       29.57R
WICHITA        CLOUDY    76  60  57 SE13      29.49R
OMAHA          CLOUDY    72  54  53 S6        29.62R
LINCOLN        CLOUDY    71  55  56 SE6       29.60R
FALLS CITY     CLEAR     69  54  58 S8        29.60R
LAMONI         CLOUDY    66  52  60 E7        29.65R
DES MOINES     CLOUDY    69  50  50 SE13      29.64R

$$





USA.gov is the U.S. government's official web portal to all federal, state and local government web resources and services.